Regional Weather Roundup
Issued by NWS

Home | Current Version | Previous Version | Graphics & Text | Print | Product List | Glossary On
Versions: 1 2 3 4 5 6 7 8 9 10 11 12 13 14 15 16 17 18 19 20 21 22 23 24 25 26 27 28 29 30 31 32 33 34 35 36 37 38 39 40 41 42 43 44 45 46 47 48 49 50
000
ASUS45 KCYS 310910
RWRWY

WYOMING REGIONAL WEATHER ROUNDUP
NATIONAL WEATHER SERVICE CHEYENNE WY
300 AM MDT FRI JUL 31 2015

NOTE:  "FAIR" INDICATES FEW OR NO CLOUDS BELOW 12,000 FEET
WITH NO SIGNIFICANT WEATHER AND/OR OBSTRUCTIONS TO VISIBILITY.

WYZ001-311000-
YELLOWSTONE NATIONAL PARK

CITY           SKY/WX    TMP DP  RH WIND       PRES   REMARKS
LK YELLOWSTONE   N/A     40  34  79 CALM      30.54S
W YELLOWSTONE  NOT AVBL

$$
WYZ002>013-054>058-071-098>099-311000-
NORTHERN WYOMING

CITY           SKY/WX    TMP DP  RH WIND       PRES   REMARKS
JACKSON        FAIR      46  37  71 N8        30.43F
CODY           FAIR      64  36  34 W6        30.31F
GREYBULL       FAIR      61  41  47 CALM      30.23S
WORLAND        FAIR      56  29  35 S7        30.24F
SHERIDAN       FAIR      52  44  74 CALM      30.25F
BUFFALO        FAIR      63  37  38 W9        30.32F
GILLETTE       FAIR      53  41  63 CALM      30.28F
HULETT         FAIR      61  37  41 SW6       30.29F
NEWCASTLE      FAIR      61  41  48 CALM      30.29S

$$
WYZ014>020-022>026-101>103-311000-
CENTRAL WYOMING

CITY           SKY/WX    TMP DP  RH WIND       PRES   REMARKS
BIG PINEY      FAIR      45  29  53 E5        30.45S
PINEDALE       FAIR      41  34  75 W6        30.45F
DUBOIS         FAIR      48  30  49 NW9       30.47S
LANDER         FAIR      63  27  25 SW13      30.33F
RIVERTON       FAIR      66  26  22 E6        30.34S
CASPER         FAIR      52  32  46 W7        30.33S
DOUGLAS        FAIR      62  41  46 E13       30.30F

$$
WYZ021-027>030-104>119-311000-
SOUTHERN WYOMING

CITY           SKY/WX    TMP DP  RH WIND       PRES   REMARKS
EVANSTON       FAIR      59  22  24 S6        30.44F
KEMMERER       FAIR      52  28  40 N10       30.45F
FORT BRIDGER   SUNNY     57  23  26 S7        30.46S
ROCK SPRINGS   FAIR      56  19  23 W12       30.40F
DIXON          FAIR      54  26  33 E5        30.40S
RAWLINS        FAIR      49  33  54 N3        30.42S
SARATOGA       FAIR      45  34  65 CALM      30.43S
LARAMIE        FAIR      51  46  83 NE9       30.45S
CHEYENNE       FAIR      57  51  80 NW5       30.38F
TORRINGTON     FAIR      57  49  74 SE7       30.26F
PINE BLUFFS    FAIR      54  52  94 W7        30.34F

$$


USA.gov is the U.S. government's official web portal to all federal, state and local government web resources and services.